Volver al catálogo

INTELSAT 505

ActivoComunicacionesGEO
NORAD 13595·PAYLOAD· XX

Lanzado Sep 28, 1982 desde Cape Canaveral Space Force Station

Loading…

TLE

ActualizadoSource: Space-Track

Época: Sep 14, 2026, 11:49 UTC

1 13595U 82097A   26257.49240080 -.00000127  00000-0  00000-0 0  9999
2 13595  12.0348 330.7850 0012145  48.4227 350.8264  0.98406538128911

Sigue INTELSAT 505 en tiempo real con AllMySat

Download on the App Store